Home   Weather   Kalispell   Past weeks

Flag for USA Past Weather in Kalispell, Montana, USA — Yesterday and Last 2 Weeks

Now
4 °F

Clear.


Feels Like: -7 °F
Forecast: -8 / 8 °F
Wind: 6 mph from North

Location: Kalispell - Glacier Park International

Current Time: Dec 7, 2016 at 9:03:26 pm

Latest Report: Dec 7, 2016 at 7:55 pm


Visibility: 10 mi

Pressure: 30.69 "Hg (27.23 "Hg at 902m altitude)

Humidity: 69%

Dew Point: -4 °F

Location of KalispellLocation

Past Weather in Kalispell — Graph

°F

Kalispell Temperature Yesterday

Maximum temperature yesterday: 16 °F (at 4:55 am)
Minimum temperature yesterday: 8 °F (at 8:55 pm)
Average temperature yesterday: 13 °F

High & Low Weather Summary for the Past Weeks

 TemperatureHumidityPressure
High48 °F (Nov 26, 2:55 pm)100% (Dec 1, 9:55 pm)30.69 "Hg (Dec 1, 9:55 pm)
Low2 °F (Dec 7, 6:55 pm)45% (Nov 24, 2:55 pm)29.50 "Hg (Nov 28, 12:55 am)
Average29 °F81%30.02 "Hg
* Reported Nov 22 7:55 pm — Dec 7 7:55 pm, Kalispell, Weather by CustomWeather, © 2016

Note: Actual official high and low records may vary slightly from our data, if they occured in-between our weather recording intervals... More about our weather records

Advertising

Kalispell Weather History for the Previous 24 Hours

Scroll right to see more
 ConditionsComfort  
Time TempWeatherWind HumidityBarometerVisibility
7:55 pm
Wed, Dec 7
4 °FClear.6 mph69%30.69 "Hg10 mi
6:55 pm2 °FClear.3 mph76%30.69 "Hg10 mi
5:55 pm6 °FClear.5 mph66%30.67 "Hg10 mi
4:55 pm6 °FOvercast.7 mph66%30.67 "Hg10 mi
3:55 pm7 °FPartly sunny.5 mph66%30.65 "Hg10 mi
2:55 pm11 °FSunny.8 mph59%30.64 "Hg10 mi
1:55 pm12 °FScattered clouds.8 mph58%30.64 "Hg10 mi
12:55 pm12 °FPassing clouds.9 mph58%30.63 "Hg10 mi
11:55 am11 °FPartly sunny.12 mph59%30.64 "Hg10 mi
10:55 am8 °FOvercast.13 mph60%30.65 "Hg10 mi
9:55 am7 °FOvercast.10 mph60%30.63 "Hg10 mi
8:55 am6 °FOvercast.12 mph60%30.62 "Hg10 mi
7:55 am5 °FMostly cloudy.13 mph63%30.60 "Hg10 mi
6:55 am6 °FOvercast.12 mph60%30.58 "Hg10 mi
5:55 am7 °FOvercast.13 mph60%30.55 "Hg10 mi
4:55 am7 °FOvercast.13 mph60%30.54 "Hg10 mi
3:55 am8 °FOvercast.16 mph60%30.51 "Hg10 mi
2:55 am8 °FOvercast.15 mph60%30.49 "Hg10 mi
1:55 am8 °FOvercast.16 mph60%30.47 "Hg10 mi
12:55 am8 °FOvercast.16 mph60%30.44 "Hg10 mi
11:55 pm
Tue, Dec 6
8 °FPassing clouds.17 mph60%30.42 "Hg10 mi
10:55 pm8 °FClear.17 mph60%30.40 "Hg10 mi
9:55 pm8 °FClear.15 mph60%30.37 "Hg10 mi
Weather by CustomWeather, © 2016

See weather overviewHow to use our weather pages